Cloud_Cover
0 0 0 0 0 0 0 3 2 0 0 0 5 100 100 100 25 5 2 4 5 5
0 0 0 0 0 0 0 0 0 0 0 3 6 100 100 100 100 5 0 4 5 1
0 0 0 0 0 0 0 0 0 0 4 1 95 94 82 45 100 4 4 1 5 5
0 0 0 0 3 0 0 0 0 2 40 99 100 100 100 100 52 0 0 2 5 2
0 0 0 0 0 0 0 0 0 5 100 100 100 100 67 35 5 0 0 5 5 47
0 0 0 0 0 0 0 0 0 1 60 60 27 4 58 86 3 0 3 2 82 10
0 0 0 0 0 0 0 2 78 100 36 70 100 100 75 1 5 5 4 5 86 33
0 1 0 0 0 0 0 4 7 100 83 98 100 40 5 5 5 5 5 5 83 100
0 0 5 0 0 0 0 0 4 10 45 52 5 41 87 47 5 5 12 34 100 100
1 4 5 5 0 2 0 0 0 93 100 100 88 92 100 73 74 5 10 95 88 96
5 1 1 3 4 5 0 0 0 2 97 86 10 98 100 54 5 5 5 5 13 39
0 0 0 0 0 0 97 63 0 4 27 34 76 91 64 8 5 5 5 5 5 33
0 0 0 0 0 5 61 31 12 8 27 78 100 100 100 22 5 5 5 5 5 100
0 0 0 0 3 5 74 38 66 12 24 91 100 97 15 5 5 5 5 5 26 68